When you browse on this site, cookies collect data to enhance your experience and personalize the content and advertising you see.
Visit our Privacy Policy to learn more. By continuing to use the site, you agree to this use of cookies and data.
  • In France
  • List of Countries
  • For 7 days
  • Water Temperature
  • Satellite Maps
  • Weather Map
  • Weather Widgets
  • user-avatar
    Login

    Hourly Weather Ulanova

    Today, 19 February, Tuesday

    Time Temperature Precipitation Wind Pressure Humidity
    00:00 -9°C° 0 mm 1 mps 749 mmHg 93%
    01:00 -9°C° 0 mm 1 mps 749 mmHg 93%
    02:00 -10°C° 0 mm 1 mps 749 mmHg 93%
    03:00 -10°C° 0 mm 1 mps 749 mmHg 93%
    04:00 -10°C° 0 mm 1 mps 749 mmHg 93%
    05:00 -12°C° 0 mm 2 mps 749 mmHg 93%
    06:00 -10°C° 0 mm 2 mps 749 mmHg 92%
    07:00 -10°C° 0 mm 2 mps 749 mmHg 92%
    08:00 -10°C° 0 mm 3 mps 749 mmHg 91%
    09:00 -9°C° 0 mm 3 mps 748 mmHg 89%
    10:00 -8°C° 0 mm 4 mps 748 mmHg 86%
    11:00 -6°C° 0 mm 5 mps 747 mmHg 84%
    12:00 -6°C° 0 mm 5 mps 747 mmHg 82%
    13:00 -5°C° 0 mm 5 mps 746 mmHg 81%
    14:00 -4°C° 0 mm 5 mps 746 mmHg 79%
    15:00 -5°C° 0 mm 5 mps 745 mmHg 81%
    16:00 -5°C° 0 mm 5 mps 745 mmHg 82%
    17:00 -5°C° 0 mm 4 mps 745 mmHg 83%
    18:00 -6°C° 0 mm 5 mps 744 mmHg 84%
    19:00 -7°C° 0 mm 5 mps 744 mmHg 85%
    20:00 -7°C° 0 mm 5 mps 743 mmHg 86%
    21:00 -7°C° 0 mm 5 mps 742 mmHg 85%
    22:00 -8°C° 0 mm 5 mps 742 mmHg 84%
    23:00 -8°C° 0 mm 5 mps 741 mmHg 84%

    Tomorrow, 20 February, Wednesday

    Time Temperature Precipitation Wind Pressure Humidity
    00:00 -8°C° 0 mm 6 mps 741 mmHg 86%
    01:00 -8°C° 0 mm 6 mps 740 mmHg 87%
    02:00 -8°C° 0 mm 6 mps 739 mmHg 89%
    03:00 -6°C° 0 mm 6 mps 739 mmHg 90%
    04:00 -5°C° 0 mm 6 mps 738 mmHg 90%
    05:00 -5°C° 0 mm 6 mps 737 mmHg 91%
    06:00 -4°C° 0 mm 6 mps 737 mmHg 91%
    07:00 -4°C° 0 mm 6 mps 737 mmHg 91%
    08:00 -4°C° 0 mm 6 mps 737 mmHg 91%
    09:00 -3°C° 0.1 mm 6 mps 736 mmHg 91%
    10:00 -3°C° 0.1 mm 6 mps 736 mmHg 91%
    11:00 -1°C° 0.1 mm 5 mps 736 mmHg 91%
    12:00 -1°C° 0.2 mm 5 mps 736 mmHg 93%
    13:00 -1°C° 0.2 mm 5 mps 736 mmHg 94%
    14:00 -1°C° 0.2 mm 5 mps 735 mmHg 95%
    15:00 -1°C° 0 mm 5 mps 735 mmHg 94%
    16:00 -1°C° 0 mm 5 mps 735 mmHg 93%
    17:00 -1°C° 0 mm 5 mps 735 mmHg 92%
    18:00 -1°C° 0 mm 5 mps 735 mmHg 92%
    19:00 -1°C° 0 mm 5 mps 735 mmHg 92%
    20:00 -1°C° 0 mm 5 mps 735 mmHg 92%
    21:00 -1°C° 0 mm 5 mps 734 mmHg 92%
    22:00 -1°C° 0 mm 5 mps 734 mmHg 92%
    23:00 -2°C° 0 mm 6 mps 733 mmHg 92%

    Day after tomorrow, 21 February, Thursday

    Time Temperature Precipitation Wind Pressure Humidity
    00:00 -1°C° 0.2 mm 5 mps 733 mmHg 91%
    01:00 -1°C° 0.2 mm 5 mps 733 mmHg 91%
    02:00 -1°C° 0.2 mm 5 mps 732 mmHg 90%
    03:00 -2°C° 0.2 mm 5 mps 732 mmHg 88%
    04:00 -4°C° 0.2 mm 5 mps 732 mmHg 87%
    05:00 -5°C° 0.2 mm 5 mps 732 mmHg 85%
    06:00 -6°C° 0 mm 5 mps 732 mmHg 87%
    07:00 -5°C° 0 mm 4 mps 732 mmHg 89%
    08:00 -6°C° 0 mm 3 mps 732 mmHg 92%
    09:00 -7°C° 0.4 mm 5 mps 733 mmHg 90%
    10:00 -6°C° 0.4 mm 6 mps 733 mmHg 89%
    11:00 -6°C° 0.4 mm 7 mps 733 mmHg 88%
    12:00 -6°C° 0.2 mm 7 mps 733 mmHg 86%
    13:00 -6°C° 0.2 mm 7 mps 734 mmHg 84%
    14:00 -7°C° 0.2 mm 7 mps 734 mmHg 81%
    15:00 -6°C° 0 mm 6 mps 734 mmHg 82%
    16:00 -8°C° 0 mm 6 mps 735 mmHg 83%
    17:00 -7°C° 0 mm 5 mps 735 mmHg 83%
    18:00 -8°C° 0.1 mm 6 mps 736 mmHg 84%
    19:00 -9°C° 0.1 mm 6 mps 736 mmHg 84%
    20:00 -9°C° 0.1 mm 7 mps 737 mmHg 85%
    21:00 -9°C° 0.1 mm 7 mps 737 mmHg 85%
    22:00 -9°C° 0.1 mm 6 mps 738 mmHg 85%
    23:00 -10°C° 0.1 mm 6 mps 738 mmHg 85%

    22 February, Friday

    Time Temperature Precipitation Wind Pressure Humidity
    00:00 -10°C° 0 mm 6 mps 739 mmHg 84%
    01:00 -11°C° 0 mm 6 mps 739 mmHg 84%
    02:00 -12°C° 0 mm 6 mps 740 mmHg 84%
    03:00 -12°C° 0 mm 6 mps 740 mmHg 83%
    04:00 -14°C° 0 mm 6 mps 741 mmHg 82%
    05:00 -14°C° 0 mm 6 mps 742 mmHg 82%
    06:00 -15°C° 0 mm 6 mps 742 mmHg 81%
    07:00 -15°C° 0 mm 7 mps 743 mmHg 81%
    08:00 -17°C° 0 mm 7 mps 744 mmHg 80%
    09:00 -17°C° 0 mm 7 mps 744 mmHg 79%
    10:00 -15°C° 0 mm 7 mps 744 mmHg 77%
    11:00 -16°C° 0 mm 8 mps 745 mmHg 76%
    12:00 -15°C° 0 mm 8 mps 745 mmHg 74%
    13:00 -15°C° 0 mm 8 mps 745 mmHg 73%
    14:00 -13°C° 0 mm 7 mps 745 mmHg 71%
    15:00 -14°C° 0 mm 7 mps 745 mmHg 74%
    16:00 -14°C° 0 mm 6 mps 745 mmHg 77%
    17:00 -13°C° 0 mm 5 mps 746 mmHg 79%
    18:00 -14°C° 0 mm 5 mps 746 mmHg 79%
    19:00 -14°C° 0 mm 5 mps 746 mmHg 80%
    20:00 -15°C° 0 mm 5 mps 747 mmHg 80%
    21:00 -15°C° 0 mm 5 mps 747 mmHg 82%
    22:00 -15°C° 0 mm 5 mps 747 mmHg 84%
    23:00 -15°C° 0 mm 5 mps 748 mmHg 85%

    23 February, Saturday

    Time Temperature Precipitation Wind Pressure Humidity
    00:00 -17°C° 0 mm 5 mps 748 mmHg 85%
    01:00 -17°C° 0 mm 5 mps 749 mmHg 85%
    02:00 -17°C° 0 mm 4 mps 749 mmHg 85%
    03:00 -17°C° 0 mm 4 mps 750 mmHg 85%
    04:00 -17°C° 0 mm 4 mps 750 mmHg 86%
    05:00 -17°C° 0 mm 4 mps 750 mmHg 87%
    06:00 -17°C° 0 mm 4 mps 751 mmHg 87%
    07:00 -17°C° 0 mm 4 mps 751 mmHg 87%
    08:00 -17°C° 0 mm 4 mps 751 mmHg 87%
    09:00 -16°C° 0 mm 4 mps 752 mmHg 86%
    10:00 -16°C° 0 mm 4 mps 752 mmHg 84%
    11:00 -15°C° 0 mm 5 mps 752 mmHg 83%
    12:00 -14°C° 0 mm 5 mps 752 mmHg 83%
    13:00 -14°C° 0 mm 4 mps 752 mmHg 83%
    14:00 -12°C° 0 mm 4 mps 752 mmHg 82%
    15:00 -14°C° 0 mm 4 mps 753 mmHg 84%
    16:00 -14°C° 0 mm 4 mps 753 mmHg 85%
    17:00 -13°C° 0 mm 3 mps 753 mmHg 87%
    18:00 -13°C° 0 mm 3 mps 753 mmHg 88%
    19:00 -13°C° 0 mm 3 mps 754 mmHg 89%
    20:00 -13°C° 0 mm 3 mps 754 mmHg 90%
    21:00 -14°C° 0 mm 3 mps 754 mmHg 91%
    22:00 -15°C° 0 mm 3 mps 755 mmHg 91%
    23:00 -16°C° 0 mm 3 mps 755 mmHg 92%

    24 February, Sunday

    Time Temperature Precipitation Wind Pressure Humidity
    00:00 -16°C° 0 mm 3 mps 755 mmHg 92%
    01:00 -17°C° 0 mm 3 mps 755 mmHg 92%
    02:00 -17°C° 0 mm 3 mps 755 mmHg 92%
    03:00 -18°C° 0 mm 3 mps 755 mmHg 92%
    04:00 -17°C° 0 mm 2 mps 755 mmHg 92%
    05:00 -18°C° 0 mm 2 mps 756 mmHg 92%
    06:00 -18°C° 0 mm 2 mps 756 mmHg 91%
    07:00 -17°C° 0 mm 2 mps 756 mmHg 90%
    08:00 -17°C° 0 mm 2 mps 757 mmHg 90%
    09:00 -16°C° 0 mm 2 mps 757 mmHg 87%
    10:00 -14°C° 0 mm 2 mps 757 mmHg 84%
    11:00 -12°C° 0 mm 2 mps 757 mmHg 81%
    12:00 -10°C° 0 mm 2 mps 757 mmHg 79%
    13:00 -9°C° 0 mm 2 mps 757 mmHg 78%
    14:00 -7°C° 0 mm 1 mps 757 mmHg 77%
    15:00 -8°C° 0 mm 1 mps 757 mmHg 79%
    16:00 -9°C° 0 mm 1 mps 756 mmHg 82%
    17:00 -10°C° 0 mm 1 mps 756 mmHg 85%
    18:00 -10°C° 0 mm 1 mps 757 mmHg 85%
    19:00 -11°C° 0 mm 1 mps 757 mmHg 85%
    20:00 -11°C° 0 mm 1 mps 757 mmHg 85%
    21:00 -11°C° 0 mm 1 mps 757 mmHg 86%
    22:00 -13°C° 0 mm 2 mps 756 mmHg 86%
    23:00 -13°C° 0 mm 2 mps 756 mmHg 87%
    Show more